Location: Aulnoy
(48.8410°N, 3.0967°E)
Time: 23:46:40
(UTC+00:00)

SL-08 R/B - Pass Details

Date: 09 February 2023
Orbit: 672 x 737 km, 98.5° (Epoch: 21 March)

Event Time Altitude Azimuth Distance (km) Brightness Sun altitude
Rises 17:52:06 0° 12° (NNE) 3,183 6.5 -9.4°
Reaches altitude 10° 17:54:25 10° 9° (N) 2,257 5.7 -9.7°
Maximum altitude 17:59:20 65° 289° (WNW) 812 3.9 -10.5°
Drops below altitude 10° 18:04:11 10° 208° (SSW) 2,231 6.4 -11.3°
Sets 18:06:28 0° 206° (SSW) 3,143 7.2 -11.7°
